EDT,Max TemperatureF,Mean TemperatureF,Min TemperatureF,Max Dew PointF,MeanDew PointF,Min DewpointF,Max Humidity, Mean Humidity, Min Humidity, Max Sea Level PressureIn, Mean Sea Level PressureIn, Min Sea Level PressureIn, Max VisibilityMiles, Mean VisibilityMiles, Min VisibilityMiles, Max Wind SpeedMPH, Mean Wind SpeedMPH, Max Gust SpeedMPH,PrecipitationIn, CloudCover, Events, WindDirDegrees
2010-10-1,55,53,51,54,46,41,94,77,58,29.97,29.91,29.83,10,10,5,14,10,22,0.00,6,,337
2010-10-2,51,46,42,45,41,37,100,79,62,30.03,30.00,29.96,10,9,0,12,2,16,0.00,7,,59
2010-10-3,46,44,42,43,40,39,93,87,81,30.19,30.12,30.06,10,10,8,14,10,20,0.12,8,,47
2010-10-4,44,43,42,43,40,37,93,88,81,30.26,30.22,30.18,10,10,9,13,9,18,0.08,8,,21
2010-10-5,46,44,42,45,42,39,100,92,87,30.18,30.14,30.08,10,7,2,14,8,22,0.27,8,,348
2010-10-6,53,48,44,50,47,43,100,93,88,30.05,29.94,29.81,10,7,0,12,6,,0.07,8,,345
2010-10-7,60,53,46,48,47,41,100,78,51,29.91,29.82,29.76,10,9,1,22,10,30,0.00,5,,281
2010-10-8,66,54,42,50,42,36,100,71,37,30.04,30.00,29.95,10,8,0,21,8,26,0.00,2,,242
2010-10-9,64,56,48,52,44,37,82,62,48,30.06,30.01,29.94,10,10,10,12,7,,0.00,0,,336
2010-10-10,71,54,37,50,42,34,93,71,43,30.04,29.94,29.81,10,10,10,14,3,17,0.00,0,,211
2010-10-11,69,58,48,57,51,46,94,79,60,29.87,29.84,29.78,10,8,0,12,4,18,0.00,2,,242
2010-10-12,55,50,42,54,45,36,100,82,62,29.98,29.88,29.79,10,8,0,14,8,17,0.18,5,Thunderstorm,332
2010-10-13,60,45,30,37,30,25,100,62,27,30.06,30.01,29.96,10,7,0,8,2,,0.00,3,,199
2010-10-14,48,45,42,45,39,30,93,79,57,29.93,29.84,29.81,10,10,3,15,4,23,0.07,7,,296
2010-10-15,51,45,39,43,37,30,100,75,44,29.78,29.74,29.72,10,10,0,24,10,34,0.01,6,Thunderstorm,304
2010-10-16,53,48,42,39,35,27,81,63,35,30.05,29.99,29.91,10,10,10,16,11,22,0.00,1,,323
2010-10-17,55,48,42,46,39,32,87,69,41,29.98,29.95,29.91,10,10,10,20,9,23,0.00,2,,264
2010-10-18,48,44,39,43,38,34,93,80,66,30.02,29.98,29.92,10,10,10,9,3,,0.00,7,,265
2010-10-19,51,46,42,43,38,30,93,79,47,29.91,29.89,29.87,10,8,0,16,6,21,0.11,7,,238
2010-10-20,55,47,39,36,33,23,75,50,29,29.89,29.75,29.61,10,10,10,21,12,26,0.00,3,,215
2010-10-21,53,45,37,43,36,32,93,76,47,29.76,29.64,29.54,10,10,7,21,13,30,0.26,7,Thunderstorm,282
2010-10-22,44,38,33,34,31,28,93,75,53,30.12,30.02,29.87,10,10,5,24,10,32,0.05,7,,295
2010-10-23,62,48,33,45,33,28,81,64,37,30.13,30.11,30.09,10,10,10,13,7,18,0.00,6,,214
2010-10-24,69,60,50,45,39,36,67,51,38,30.10,30.04,29.95,10,10,9,15,7,18,0.00,2,,194
2010-10-25,60,58,55,55,49,45,94,68,55,29.88,29.80,29.71,10,9,4,16,8,17,0.12,7,,189
2010-10-26,71,63,55,57,55,54,100,83,60,29.78,29.69,29.53,10,9,4,20,10,33,0.00,5,,174
2010-10-27,62,54,46,46,41,32,93,65,32,29.86,29.80,29.73,10,10,10,20,11,29,0.00,2,,198
2010-10-28,55,47,39,39,33,28,87,59,41,30.00,29.86,29.75,10,10,7,28,13,36,0.00,5,,235
2010-10-29,41,39,37,37,34,28,93,82,61,30.14,30.08,30.00,10,8,3,20,11,24,0.13,8,,301
2010-10-30,48,42,35,30,27,23,75,61,37,30.09,29.95,29.72,10,10,10,20,12,30,0.00,1,,216
2010-10-31,46,40,35,37,30,27,81,67,50,30.12,29.92,29.71,10,10,10,18,11,23,0.00,8,,325